TimeCST,TemperatureF,Dew PointF,Humidity,Sea Level PressureIn,VisibilityMPH,Wind Direction,Wind SpeedMPH,Gust SpeedMPH,PrecipitationIn,Events,Conditions,WindDirDegrees,DateUTC
12:53 AM,50.0,27.0,41,30.31,10.0,North,12.7,-,N/A,,Clear,360,2013-03-06 06:53:00
1:53 AM,46.9,27.0,46,30.32,10.0,North,6.9,-,N/A,,Clear,360,2013-03-06 07:53:00
2:53 AM,44.1,27.0,51,30.33,10.0,North,4.6,-,N/A,,Clear,350,2013-03-06 08:53:00
3:53 AM,42.1,27.0,55,30.33,10.0,North,4.6,-,N/A,,Clear,350,2013-03-06 09:53:00
4:53 AM,42.1,27.0,55,30.35,10.0,North,5.8,-,N/A,,Clear,10,2013-03-06 10:53:00
5:53 AM,39.9,27.0,60,30.37,10.0,North,4.6,-,N/A,,Clear,10,2013-03-06 11:53:00
6:53 AM,39.9,26.1,58,30.39,10.0,North,6.9,-,N/A,,Clear,10,2013-03-06 12:53:00
7:53 AM,46.0,27.0,47,30.41,10.0,NNE,8.1,-,N/A,,Clear,20,2013-03-06 13:53:00
8:53 AM,50.0,24.1,36,30.42,10.0,NE,15.0,-,N/A,,Clear,40,2013-03-06 14:53:00
9:53 AM,53.1,24.1,32,30.41,10.0,NE,11.5,-,N/A,,Clear,40,2013-03-06 15:53:00
10:53 AM,55.9,24.1,29,30.41,10.0,North,6.9,-,N/A,,Clear,10,2013-03-06 16:53:00
11:53 AM,59.0,21.9,24,30.39,10.0,NNE,9.2,-,N/A,,Clear,20,2013-03-06 17:53:00
12:53 PM,62.1,21.9,21,30.35,10.0,NNE,11.5,-,N/A,,Clear,20,2013-03-06 18:53:00
1:53 PM,64.9,21.9,19,30.31,10.0,North,5.8,-,N/A,,Clear,360,2013-03-06 19:53:00
2:53 PM,66.9,19.9,17,30.28,10.0,North,10.4,-,N/A,,Clear,350,2013-03-06 20:53:00
3:53 PM,68.0,17.1,14,30.27,10.0,NNW,8.1,-,N/A,,Clear,330,2013-03-06 21:53:00
4:53 PM,66.0,19.9,17,30.27,10.0,North,6.9,-,N/A,,Clear,360,2013-03-06 22:53:00
5:53 PM,59.0,26.1,28,30.27,10.0,North,3.5,-,N/A,,Clear,360,2013-03-06 23:53:00
6:53 PM,50.0,35.1,57,30.29,10.0,Calm,Calm,-,N/A,,Clear,0,2013-03-07 00:53:00
7:53 PM,48.9,35.1,59,30.29,10.0,SSW,6.9,-,N/A,,Clear,200,2013-03-07 01:53:00
8:53 PM,46.9,42.1,83,30.30,10.0,Calm,Calm,-,N/A,,Clear,0,2013-03-07 02:53:00
9:53 PM,44.1,39.9,85,30.28,10.0,NE,3.5,-,N/A,,Clear,50,2013-03-07 03:53:00
10:53 PM,44.1,41.0,89,30.28,10.0,Calm,Calm,-,N/A,,Clear,0,2013-03-07 04:53:00
11:53 PM,44.1,39.9,85,30.27,10.0,Calm,Calm,-,N/A,,Clear,0,2013-03-07 05:53:00